Year,Month,Day,Hour,Minute,Value (Times are PST for temperature in C)
2015,02,28,00,00,5.30
2015,02,28,00,01,5.40
2015,02,28,00,02,5.60
2015,02,28,00,03,5.70
2015,02,28,00,04,5.70
2015,02,28,00,05,5.80
2015,02,28,00,06,5.80
2015,02,28,00,07,5.90
2015,02,28,00,08,5.90
2015,02,28,00,09,5.90
2015,02,28,00,10,6.00
2015,02,28,00,11,6.00
2015,02,28,00,12,6.00
2015,02,28,00,13,6.10
2015,02,28,00,14,6.10
2015,02,28,00,15,6.10
2015,02,28,00,16,6.10
2015,02,28,00,17,6.10
2015,02,28,00,18,6.00
2015,02,28,00,19,6.00
2015,02,28,00,20,5.90
2015,02,28,00,21,5.90
2015,02,28,00,22,5.80
2015,02,28,00,23,5.80
2015,02,28,00,24,5.80
2015,02,28,00,25,5.70
2015,02,28,00,26,5.70
2015,02,28,00,27,5.60
2015,02,28,00,28,5.50
2015,02,28,00,29,5.50
2015,02,28,00,30,5.40
2015,02,28,00,31,5.30
2015,02,28,00,32,5.20
2015,02,28,00,33,5.20
2015,02,28,00,34,5.10
2015,02,28,00,35,5.10
2015,02,28,00,36,5.10
2015,02,28,00,37,5.10
2015,02,28,00,38,5.10
2015,02,28,00,39,5.10
2015,02,28,00,40,5.10
2015,02,28,00,41,5.10
2015,02,28,00,42,5.20
2015,02,28,00,43,5.20
2015,02,28,00,44,5.20
2015,02,28,00,45,5.30
2015,02,28,00,46,5.30
2015,02,28,00,47,5.30
2015,02,28,00,48,5.40
2015,02,28,00,49,5.40
2015,02,28,00,50,5.40
2015,02,28,00,51,5.40
2015,02,28,00,52,5.40
2015,02,28,00,53,5.40
2015,02,28,00,54,5.40
2015,02,28,00,55,5.40
2015,02,28,00,56,5.40
2015,02,28,00,57,5.50
2015,02,28,00,58,5.50
2015,02,28,00,59,5.50
2015,02,28,01,00,5.60
2015,02,28,01,01,5.60
2015,02,28,01,02,5.60
2015,02,28,01,03,5.60
2015,02,28,01,04,5.50
2015,02,28,01,05,5.50
2015,02,28,01,06,5.50
2015,02,28,01,07,5.60
2015,02,28,01,08,5.60
2015,02,28,01,09,5.60
2015,02,28,01,10,5.60
2015,02,28,01,11,5.50
2015,02,28,01,12,5.50
2015,02,28,01,13,5.50
2015,02,28,01,14,5.50
2015,02,28,01,15,5.50
2015,02,28,01,16,5.50
2015,02,28,01,17,5.50
2015,02,28,01,18,5.50
2015,02,28,01,19,5.50
2015,02,28,01,20,5.40
2015,02,28,01,21,5.40
2015,02,28,01,22,5.40
2015,02,28,01,23,5.40
2015,02,28,01,24,5.40
2015,02,28,01,25,5.40
2015,02,28,01,26,5.40
2015,02,28,01,27,5.30
2015,02,28,01,28,5.30
2015,02,28,01,29,5.30
2015,02,28,01,30,5.30
2015,02,28,01,31,5.30
2015,02,28,01,32,5.30
2015,02,28,01,33,5.30
2015,02,28,01,34,5.30
2015,02,28,01,35,5.30
2015,02,28,01,36,5.20
2015,02,28,01,37,5.20
2015,02,28,01,38,5.20
2015,02,28,01,39,5.20
2015,02,28,01,40,5.20
2015,02,28,01,41,5.20
2015,02,28,01,42,5.10
2015,02,28,01,43,5.10
2015,02,28,01,44,5.10
2015,02,28,01,45,5.10
2015,02,28,01,46,5.10
2015,02,28,01,47,5.10
2015,02,28,01,48,5.10
2015,02,28,01,49,5.20
2015,02,28,01,50,5.20
2015,02,28,01,51,5.20
2015,02,28,01,52,5.30
2015,02,28,01,53,5.30
2015,02,28,01,54,5.30
2015,02,28,01,55,5.40
2015,02,28,01,56,5.40
2015,02,28,01,57,5.50
2015,02,28,01,58,5.50
2015,02,28,01,59,5.60
2015,02,28,02,00,5.60
2015,02,28,02,01,5.60
2015,02,28,02,02,5.60
2015,02,28,02,03,5.50
2015,02,28,02,04,5.50
2015,02,28,02,05,5.40
2015,02,28,02,06,5.40
2015,02,28,02,07,5.40
2015,02,28,02,08,5.30
2015,02,28,02,09,5.30
2015,02,28,02,10,5.20
2015,02,28,02,11,5.10
2015,02,28,02,12,5.00
2015,02,28,02,13,4.90
2015,02,28,02,14,4.80
2015,02,28,02,15,4.70
2015,02,28,02,16,4.60
2015,02,28,02,17,4.50
2015,02,28,02,18,4.40
2015,02,28,02,19,4.30
2015,02,28,02,20,4.30
2015,02,28,02,21,4.30
2015,02,28,02,22,4.30
2015,02,28,02,23,4.40
2015,02,28,02,24,4.40
2015,02,28,02,25,4.50
2015,02,28,02,26,4.50
2015,02,28,02,27,4.60
2015,02,28,02,28,4.60
2015,02,28,02,29,4.60
2015,02,28,02,30,4.60
2015,02,28,02,31,4.60
2015,02,28,02,32,4.70
2015,02,28,02,33,4.70
2015,02,28,02,34,4.70
2015,02,28,02,35,4.70
2015,02,28,02,36,4.70
2015,02,28,02,37,4.70
2015,02,28,02,38,4.80
2015,02,28,02,39,4.80
2015,02,28,02,40,4.80
2015,02,28,02,41,4.90
2015,02,28,02,42,4.90
2015,02,28,02,43,5.00
2015,02,28,02,44,5.10
2015,02,28,02,45,5.10
2015,02,28,02,46,5.10
2015,02,28,02,47,5.10
2015,02,28,02,48,5.10
2015,02,28,02,49,5.10
2015,02,28,02,50,5.10
2015,02,28,02,51,5.10
2015,02,28,02,52,5.10
2015,02,28,02,53,5.20
2015,02,28,02,54,5.20
2015,02,28,02,55,5.20
2015,02,28,02,56,5.20
2015,02,28,02,57,5.20
2015,02,28,02,58,5.20
2015,02,28,02,59,5.20
2015,02,28,03,00,5.20
2015,02,28,03,01,5.20
2015,02,28,03,02,5.20
2015,02,28,03,03,5.20
2015,02,28,03,04,5.20
2015,02,28,03,05,5.20
2015,02,28,03,06,5.20
2015,02,28,03,07,5.20
2015,02,28,03,08,5.20
2015,02,28,03,09,5.20
2015,02,28,03,10,5.20
2015,02,28,03,11,5.20
2015,02,28,03,12,5.20
2015,02,28,03,13,5.20
2015,02,28,03,14,5.20
2015,02,28,03,15,5.20
2015,02,28,03,16,5.10
2015,02,28,03,17,5.10
2015,02,28,03,18,5.10
2015,02,28,03,19,5.10
2015,02,28,03,20,5.10
2015,02,28,03,21,5.00
2015,02,28,03,22,5.00
2015,02,28,03,23,4.90
2015,02,28,03,24,4.90
2015,02,28,03,25,4.90
2015,02,28,03,26,4.80
2015,02,28,03,27,4.80
2015,02,28,03,28,4.80
2015,02,28,03,29,4.80
2015,02,28,03,30,4.80
2015,02,28,03,31,4.80
2015,02,28,03,32,4.80
2015,02,28,03,33,4.80
2015,02,28,03,34,4.80
2015,02,28,03,35,4.80
2015,02,28,03,36,4.90
2015,02,28,03,37,4.90
2015,02,28,03,38,4.90
2015,02,28,03,39,4.90
2015,02,28,03,40,4.90
2015,02,28,03,41,4.90
2015,02,28,03,42,4.90
2015,02,28,03,43,4.90
2015,02,28,03,44,4.90
2015,02,28,03,45,4.90
2015,02,28,03,46,4.90
2015,02,28,03,47,4.80
2015,02,28,03,48,4.70
2015,02,28,03,49,4.70
2015,02,28,03,50,4.60
2015,02,28,03,51,4.50
2015,02,28,03,52,4.50
2015,02,28,03,53,4.40
2015,02,28,03,54,4.30
2015,02,28,03,55,4.30
2015,02,28,03,56,4.20
2015,02,28,03,57,4.20
2015,02,28,03,58,4.20
2015,02,28,03,59,4.20
2015,02,28,04,00,4.30
2015,02,28,04,01,4.30
2015,02,28,04,02,4.30
2015,02,28,04,03,4.40
2015,02,28,04,04,4.40
2015,02,28,04,05,4.50
2015,02,28,04,06,4.60
2015,02,28,04,07,4.60
2015,02,28,04,08,4.70
2015,02,28,04,09,4.70
2015,02,28,04,10,4.80
2015,02,28,04,11,4.80
2015,02,28,04,12,4.80
2015,02,28,04,13,4.80
2015,02,28,04,14,4.90
2015,02,28,04,15,4.80
2015,02,28,04,16,4.90
2015,02,28,04,17,4.90
2015,02,28,04,18,4.90
2015,02,28,04,19,4.90
2015,02,28,04,20,4.90
2015,02,28,04,21,4.90
2015,02,28,04,22,4.90
2015,02,28,04,23,5.00
2015,02,28,04,24,4.90
2015,02,28,04,25,5.00
2015,02,28,04,26,5.00
2015,02,28,04,27,5.00
2015,02,28,04,28,5.00
2015,02,28,04,29,4.90
2015,02,28,04,30,4.90
2015,02,28,04,31,4.90
2015,02,28,04,32,4.90
2015,02,28,04,33,4.90
2015,02,28,04,34,4.90
2015,02,28,04,35,4.90
2015,02,28,04,36,4.90
2015,02,28,04,37,5.00
2015,02,28,04,38,5.00
2015,02,28,04,39,5.00
2015,02,28,04,40,5.00
2015,02,28,04,41,5.00
2015,02,28,04,42,5.10
2015,02,28,04,43,5.10
2015,02,28,04,44,5.10
2015,02,28,04,45,5.10
2015,02,28,04,46,5.10
2015,02,28,04,47,5.10
2015,02,28,04,48,5.10
2015,02,28,04,49,5.00
2015,02,28,04,50,5.00
2015,02,28,04,51,5.00
2015,02,28,04,52,5.00
2015,02,28,04,53,5.00
2015,02,28,04,54,4.90
2015,02,28,04,55,4.90
2015,02,28,04,56,4.90
2015,02,28,04,57,4.90
2015,02,28,04,58,4.90
2015,02,28,04,59,4.90
2015,02,28,05,00,4.90
2015,02,28,05,01,4.90
2015,02,28,05,02,4.90
2015,02,28,05,03,4.90
2015,02,28,05,04,4.90
2015,02,28,05,05,4.90
2015,02,28,05,06,4.90
2015,02,28,05,07,4.90
2015,02,28,05,08,4.90
2015,02,28,05,09,4.80
2015,02,28,05,10,4.80
2015,02,28,05,11,4.80
2015,02,28,05,12,4.80
2015,02,28,05,13,4.80
2015,02,28,05,14,4.80
2015,02,28,05,15,4.80
2015,02,28,05,16,4.70
2015,02,28,05,17,4.70
2015,02,28,05,18,4.70
2015,02,28,05,19,4.70
2015,02,28,05,20,4.70
2015,02,28,05,21,4.70
2015,02,28,05,22,4.70
2015,02,28,05,23,4.70
2015,02,28,05,24,4.70
2015,02,28,05,25,4.70
2015,02,28,05,26,4.70
2015,02,28,05,27,4.60
2015,02,28,05,28,4.60
2015,02,28,05,29,4.60
2015,02,28,05,30,4.50
2015,02,28,05,31,4.40
2015,02,28,05,32,4.40
2015,02,28,05,33,4.30
2015,02,28,05,34,4.30
2015,02,28,05,35,4.20
2015,02,28,05,36,4.10
2015,02,28,05,37,4.00
2015,02,28,05,38,3.90
2015,02,28,05,39,3.70
2015,02,28,05,40,3.60
2015,02,28,05,41,3.50
2015,02,28,05,42,3.40
2015,02,28,05,43,3.20
2015,02,28,05,44,3.10
2015,02,28,05,45,3.00
2015,02,28,05,46,2.80
2015,02,28,05,47,2.70
2015,02,28,05,48,2.60
2015,02,28,05,49,2.40
2015,02,28,05,50,2.30
2015,02,28,05,51,2.20
2015,02,28,05,52,2.00
2015,02,28,05,53,2.00
2015,02,28,05,54,1.90
2015,02,28,05,55,1.80
2015,02,28,05,56,1.70
2015,02,28,05,57,1.70
2015,02,28,05,58,1.70
2015,02,28,05,59,1.60
2015,02,28,06,00,1.60
2015,02,28,06,01,1.60
2015,02,28,06,02,1.60
2015,02,28,06,03,1.60
2015,02,28,06,04,1.60
2015,02,28,06,05,1.60
2015,02,28,06,06,1.60
2015,02,28,06,07,1.50
2015,02,28,06,08,1.50
2015,02,28,06,09,1.50
2015,02,28,06,10,1.50
2015,02,28,06,11,1.50
2015,02,28,06,12,1.50
2015,02,28,06,13,1.40
2015,02,28,06,14,1.40
2015,02,28,06,15,1.30
2015,02,28,06,16,1.30
2015,02,28,06,17,1.30
2015,02,28,06,18,1.30
2015,02,28,06,19,1.30
2015,02,28,06,20,1.30
2015,02,28,06,21,1.30
2015,02,28,06,22,1.20
2015,02,28,06,23,1.20
2015,02,28,06,24,1.10
2015,02,28,06,25,1.10
2015,02,28,06,26,1.10
2015,02,28,06,27,1.10
2015,02,28,06,28,1.10
2015,02,28,06,29,1.20
2015,02,28,06,30,1.10
2015,02,28,06,31,1.10
2015,02,28,06,32,1.20
2015,02,28,06,33,1.20
2015,02,28,06,34,1.30
2015,02,28,06,35,1.30
2015,02,28,06,36,1.30
2015,02,28,06,37,1.30
2015,02,28,06,38,1.30
2015,02,28,06,39,1.30
2015,02,28,06,40,1.30
2015,02,28,06,41,1.40
2015,02,28,06,42,1.30
2015,02,28,06,43,1.30
2015,02,28,06,44,1.30
2015,02,28,06,45,1.30
2015,02,28,06,46,1.30
2015,02,28,06,47,1.30
2015,02,28,06,48,1.30
2015,02,28,06,49,1.30
2015,02,28,06,50,1.20
2015,02,28,06,51,1.20
2015,02,28,06,52,1.10
2015,02,28,06,53,1.10
2015,02,28,06,54,1.00
2015,02,28,06,55,1.00
2015,02,28,06,56,0.90
2015,02,28,06,57,0.90
2015,02,28,06,58,0.80
2015,02,28,06,59,0.80
2015,02,28,07,00,0.90
2015,02,28,07,01,0.90
2015,02,28,07,02,0.90
2015,02,28,07,03,0.90
2015,02,28,07,04,0.90
2015,02,28,07,05,0.90
2015,02,28,07,06,0.90
2015,02,28,07,07,0.80
2015,02,28,07,08,0.80
2015,02,28,07,09,0.80
2015,02,28,07,10,0.70
2015,02,28,07,11,0.70
2015,02,28,07,12,0.60
2015,02,28,07,13,0.60
2015,02,28,07,14,0.50
2015,02,28,07,15,0.40
2015,02,28,07,16,0.40
2015,02,28,07,17,0.30
2015,02,28,07,18,0.30
2015,02,28,07,19,0.20
2015,02,28,07,20,0.20
2015,02,28,07,21,0.10
2015,02,28,07,22,0.10
2015,02,28,07,23,0.10
2015,02,28,07,24,0.10
2015,02,28,07,25,0.10
2015,02,28,07,26,0.10
2015,02,28,07,27,0.10
2015,02,28,07,28,0.10
2015,02,28,07,29,0.10
2015,02,28,07,30,0.20
2015,02,28,07,31,0.20
2015,02,28,07,32,0.20
2015,02,28,07,33,0.20
2015,02,28,07,34,0.30
2015,02,28,07,35,0.30
2015,02,28,07,36,0.30
2015,02,28,07,37,0.30
2015,02,28,07,38,0.30
2015,02,28,07,39,0.40
2015,02,28,07,40,0.40
2015,02,28,07,41,0.40
2015,02,28,07,42,0.40
2015,02,28,07,43,0.40
2015,02,28,07,44,0.40
2015,02,28,07,45,0.40
2015,02,28,07,46,0.50
2015,02,28,07,47,0.50
2015,02,28,07,48,0.60
2015,02,28,07,49,0.60
2015,02,28,07,50,0.60
2015,02,28,07,51,0.60
2015,02,28,07,52,0.60
2015,02,28,07,53,0.60
2015,02,28,07,54,0.60
2015,02,28,07,55,0.60
2015,02,28,07,56,0.60
2015,02,28,07,57,0.60
2015,02,28,07,58,0.60
2015,02,28,07,59,0.70
2015,02,28,08,00,0.70
2015,02,28,08,01,0.70
2015,02,28,08,02,0.80
2015,02,28,08,03,0.80
2015,02,28,08,04,0.80
2015,02,28,08,05,0.90
2015,02,28,08,06,1.00
2015,02,28,08,07,1.10
2015,02,28,08,08,1.20
2015,02,28,08,09,1.30
2015,02,28,08,10,1.30
2015,02,28,08,11,1.30
2015,02,28,08,12,1.40
2015,02,28,08,13,1.60
2015,02,28,08,14,1.70
2015,02,28,08,15,1.80
2015,02,28,08,16,1.90
2015,02,28,08,17,2.00
2015,02,28,08,18,2.10
2015,02,28,08,19,2.20
2015,02,28,08,20,2.30
2015,02,28,08,21,2.40
2015,02,28,08,22,2.40
2015,02,28,08,23,2.50
2015,02,28,08,24,2.50
2015,02,28,08,25,2.60
2015,02,28,08,26,2.60
2015,02,28,08,27,2.60
2015,02,28,08,28,2.70
2015,02,28,08,29,2.70
2015,02,28,08,30,2.80
2015,02,28,08,31,2.80
2015,02,28,08,32,2.90
2015,02,28,08,33,3.00
2015,02,28,08,34,3.10
2015,02,28,08,35,3.10
2015,02,28,08,36,3.20
2015,02,28,08,37,3.30
2015,02,28,08,38,3.30
2015,02,28,08,39,3.40
2015,02,28,08,40,3.40
2015,02,28,08,41,3.50
2015,02,28,08,42,3.60
2015,02,28,08,43,3.70
2015,02,28,08,44,3.70
2015,02,28,08,45,3.80
2015,02,28,08,46,3.90
2015,02,28,08,47,4.00
2015,02,28,08,48,4.10
2015,02,28,08,49,4.20
2015,02,28,08,50,4.20
2015,02,28,08,51,4.30
2015,02,28,08,52,4.40
2015,02,28,08,53,4.60
2015,02,28,08,54,4.60
2015,02,28,08,55,4.70
2015,02,28,08,56,4.80
2015,02,28,08,57,5.00
2015,02,28,08,58,5.10
2015,02,28,08,59,5.10
2015,02,28,09,00,5.20
2015,02,28,09,01,5.30
2015,02,28,09,02,5.40
2015,02,28,09,03,5.40
2015,02,28,09,04,5.50
2015,02,28,09,05,5.60
2015,02,28,09,06,5.70
2015,02,28,09,07,5.80
2015,02,28,09,08,5.90
2015,02,28,09,09,5.90
2015,02,28,09,10,6.00
2015,02,28,09,11,6.10
2015,02,28,09,12,6.10
2015,02,28,09,13,6.20
2015,02,28,09,14,6.30
2015,02,28,09,15,6.30
2015,02,28,09,16,6.30
2015,02,28,09,17,6.40
2015,02,28,09,18,6.40
2015,02,28,09,19,6.40
2015,02,28,09,20,6.50
2015,02,28,09,21,6.50
2015,02,28,09,22,6.50
2015,02,28,09,23,6.60
2015,02,28,09,24,6.60
2015,02,28,09,25,6.70
2015,02,28,09,26,6.70
2015,02,28,09,27,6.80
2015,02,28,09,28,6.90
2015,02,28,09,29,6.90
2015,02,28,09,30,7.00
2015,02,28,09,31,7.10
2015,02,28,09,32,7.20
2015,02,28,09,33,7.30
2015,02,28,09,34,7.30
2015,02,28,09,35,7.40
2015,02,28,09,36,7.50
2015,02,28,09,37,7.50
2015,02,28,09,38,7.60
2015,02,28,09,39,7.60
2015,02,28,09,40,7.70
2015,02,28,09,41,7.70
2015,02,28,09,42,7.70
2015,02,28,09,43,7.70
2015,02,28,09,44,7.70
2015,02,28,09,45,7.70
2015,02,28,09,46,7.80
2015,02,28,09,47,7.80
2015,02,28,09,48,7.80
2015,02,28,09,49,7.90
2015,02,28,09,50,7.90
2015,02,28,09,51,7.90
2015,02,28,09,52,8.00
2015,02,28,09,53,8.00
2015,02,28,09,54,8.10
2015,02,28,09,55,8.10
2015,02,28,09,56,8.20
2015,02,28,09,57,8.30
2015,02,28,09,58,8.40
2015,02,28,09,59,8.50
2015,02,28,10,00,8.50
2015,02,28,10,01,8.60
2015,02,28,10,02,8.60
2015,02,28,10,03,8.70
2015,02,28,10,04,8.70
2015,02,28,10,05,8.80
2015,02,28,10,06,8.80
2015,02,28,10,07,8.80
2015,02,28,10,08,8.90
2015,02,28,10,09,8.90
2015,02,28,10,10,8.90
2015,02,28,10,11,9.00
2015,02,28,10,12,9.00
2015,02,28,10,13,9.00
2015,02,28,10,14,9.00
2015,02,28,10,15,9.00
2015,02,28,10,16,9.00
2015,02,28,10,17,9.00
2015,02,28,10,18,9.00
2015,02,28,10,19,9.00
2015,02,28,10,20,9.00
2015,02,28,10,21,9.00
2015,02,28,10,22,9.10
2015,02,28,10,23,9.10
2015,02,28,10,24,9.10
2015,02,28,10,25,9.10
2015,02,28,10,26,9.10
2015,02,28,10,27,9.10
2015,02,28,10,28,9.10
2015,02,28,10,29,9.20
2015,02,28,10,30,9.20
2015,02,28,10,31,9.10
2015,02,28,10,32,9.10
2015,02,28,10,33,9.10
2015,02,28,10,34,9.10
2015,02,28,10,35,9.10
2015,02,28,10,36,8.90
2015,02,28,10,37,8.80
2015,02,28,10,38,8.70
2015,02,28,10,39,8.70
2015,02,28,10,40,8.70
2015,02,28,10,41,8.60
2015,02,28,10,42,8.60
2015,02,28,10,43,8.60
2015,02,28,10,44,8.60
2015,02,28,10,45,8.60
2015,02,28,10,46,8.70
2015,02,28,10,47,8.70
2015,02,28,10,48,8.80
2015,02,28,10,49,8.80
2015,02,28,10,50,8.80
2015,02,28,10,51,8.80
2015,02,28,10,52,8.70
2015,02,28,10,53,8.70
2015,02,28,10,54,8.70
2015,02,28,10,55,8.70
2015,02,28,10,56,8.70
2015,02,28,10,57,8.70
2015,02,28,10,58,8.70
2015,02,28,10,59,8.80
2015,02,28,11,00,8.80
2015,02,28,11,01,8.80
2015,02,28,11,02,8.90
2015,02,28,11,03,8.90
2015,02,28,11,04,9.00
2015,02,28,11,05,9.00
2015,02,28,11,06,9.10
2015,02,28,11,07,9.20
2015,02,28,11,08,9.30
2015,02,28,11,09,9.30
2015,02,28,11,10,9.40
2015,02,28,11,11,9.50
2015,02,28,11,12,9.60
2015,02,28,11,13,9.70
2015,02,28,11,14,9.70
2015,02,28,11,15,9.70
2015,02,28,11,16,9.60
2015,02,28,11,17,9.50
2015,02,28,11,18,9.40
2015,02,28,11,19,9.30
2015,02,28,11,20,9.30
2015,02,28,11,21,9.20
2015,02,28,11,22,9.20
2015,02,28,11,23,9.20
2015,02,28,11,24,9.20
2015,02,28,11,25,9.00
2015,02,28,11,26,8.90
2015,02,28,11,27,8.80
2015,02,28,11,28,8.70
2015,02,28,11,29,8.70
2015,02,28,11,30,8.70
2015,02,28,11,31,8.70
2015,02,28,11,32,8.70
2015,02,28,11,33,8.80
2015,02,28,11,34,8.80
2015,02,28,11,35,8.80
2015,02,28,11,36,8.80
2015,02,28,11,37,8.90
2015,02,28,11,38,9.00
2015,02,28,11,39,9.10
2015,02,28,11,40,9.10
2015,02,28,11,41,9.20
2015,02,28,11,42,9.10
2015,02,28,11,43,9.10
2015,02,28,11,44,9.10
2015,02,28,11,45,9.00
2015,02,28,11,46,9.00
2015,02,28,11,47,9.00
2015,02,28,11,48,9.00
2015,02,28,11,49,9.10
2015,02,28,11,50,9.10
2015,02,28,11,51,9.20
2015,02,28,11,52,9.10
2015,02,28,11,53,9.00
2015,02,28,11,54,8.90
2015,02,28,11,55,9.00
2015,02,28,11,56,9.00
2015,02,28,11,57,9.10
2015,02,28,11,58,9.10
2015,02,28,11,59,9.10
2015,02,28,12,00,9.00
2015,02,28,12,01,9.00
2015,02,28,12,02,9.10
2015,02,28,12,03,9.20
2015,02,28,12,04,9.20
2015,02,28,12,05,9.30
2015,02,28,12,06,9.30
2015,02,28,12,07,9.30
2015,02,28,12,08,9.30
2015,02,28,12,09,9.30
2015,02,28,12,10,9.40
2015,02,28,12,11,9.40
2015,02,28,12,12,9.30
2015,02,28,12,13,9.30
2015,02,28,12,14,9.30
2015,02,28,12,15,9.20
2015,02,28,12,16,9.20
2015,02,28,12,17,9.30
2015,02,28,12,18,9.40
2015,02,28,12,19,9.40
2015,02,28,12,20,9.30
2015,02,28,12,21,9.30
2015,02,28,12,22,9.30
2015,02,28,12,23,9.40
2015,02,28,12,24,9.40
2015,02,28,12,25,9.40
2015,02,28,12,26,9.40
2015,02,28,12,27,9.30
2015,02,28,12,28,9.30
2015,02,28,12,29,9.30
2015,02,28,12,30,9.30
2015,02,28,12,31,9.30
2015,02,28,12,32,9.30
2015,02,28,12,33,9.30
2015,02,28,12,34,9.30
2015,02,28,12,35,9.30
2015,02,28,12,36,9.30
2015,02,28,12,37,9.30
2015,02,28,12,38,9.20
2015,02,28,12,39,9.20
2015,02,28,12,40,9.30
2015,02,28,12,41,9.30
2015,02,28,12,42,9.30
2015,02,28,12,43,9.40
2015,02,28,12,44,9.40
2015,02,28,12,45,9.40
2015,02,28,12,46,9.40
2015,02,28,12,47,9.30
2015,02,28,12,48,9.30
2015,02,28,12,49,9.30
2015,02,28,12,50,9.30
2015,02,28,12,51,9.30
2015,02,28,12,52,9.30
2015,02,28,12,53,9.30
2015,02,28,12,54,9.30
2015,02,28,12,55,9.40
2015,02,28,12,56,9.50
2015,02,28,12,57,9.50
2015,02,28,12,58,9.50
2015,02,28,12,59,9.50
2015,02,28,13,00,9.40
2015,02,28,13,01,9.40
2015,02,28,13,02,9.40
2015,02,28,13,03,9.30
2015,02,28,13,04,9.30
2015,02,28,13,05,9.30
2015,02,28,13,06,9.30
2015,02,28,13,07,9.40
2015,02,28,13,08,9.40
2015,02,28,13,09,9.30
2015,02,28,13,10,9.20
2015,02,28,13,11,9.20
2015,02,28,13,12,9.10
2015,02,28,13,13,9.00
2015,02,28,13,14,9.00
2015,02,28,13,15,8.90
2015,02,28,13,16,9.00
2015,02,28,13,17,9.00
2015,02,28,13,18,9.00
2015,02,28,13,19,9.00
2015,02,28,13,20,9.10
2015,02,28,13,21,9.10
2015,02,28,13,22,9.20
2015,02,28,13,23,9.10
2015,02,28,13,24,9.10
2015,02,28,13,25,9.10
2015,02,28,13,26,9.00
2015,02,28,13,27,9.00
2015,02,28,13,28,9.00
2015,02,28,13,29,9.10
2015,02,28,13,30,9.10
2015,02,28,13,31,9.20
2015,02,28,13,32,9.20
2015,02,28,13,33,9.20
2015,02,28,13,34,9.20
2015,02,28,13,35,9.20
2015,02,28,13,36,9.20
2015,02,28,13,37,9.20
2015,02,28,13,38,9.20
2015,02,28,13,39,9.20
2015,02,28,13,40,9.20
2015,02,28,13,41,9.20
2015,02,28,13,42,9.10
2015,02,28,13,43,9.10
2015,02,28,13,44,9.20
2015,02,28,13,45,9.10
2015,02,28,13,46,9.10
2015,02,28,13,47,9.10
2015,02,28,13,48,9.20
2015,02,28,13,49,9.20
2015,02,28,13,50,9.20
2015,02,28,13,51,9.20
2015,02,28,13,52,9.30
2015,02,28,13,53,9.30
2015,02,28,13,54,9.30
2015,02,28,13,55,9.40
2015,02,28,13,56,9.40
2015,02,28,13,57,9.50
2015,02,28,13,58,9.50
2015,02,28,13,59,9.60
2015,02,28,14,00,9.70
2015,02,28,14,01,9.80
2015,02,28,14,02,9.80
2015,02,28,14,03,9.90
2015,02,28,14,04,9.90
2015,02,28,14,05,9.90
2015,02,28,14,06,9.90
2015,02,28,14,07,10.00
2015,02,28,14,08,10.00
2015,02,28,14,09,10.10
2015,02,28,14,10,10.10
2015,02,28,14,11,10.10
2015,02,28,14,12,10.10
2015,02,28,14,13,10.10
2015,02,28,14,14,10.10
2015,02,28,14,15,10.00
2015,02,28,14,16,10.00
2015,02,28,14,17,10.00
2015,02,28,14,18,10.00
2015,02,28,14,19,10.00
2015,02,28,14,20,9.90
2015,02,28,14,21,9.90
2015,02,28,14,22,9.90
2015,02,28,14,23,9.80
2015,02,28,14,24,9.70
2015,02,28,14,25,9.70
2015,02,28,14,26,9.70
2015,02,28,14,27,9.70
2015,02,28,14,28,9.60
2015,02,28,14,29,9.60
2015,02,28,14,30,9.60
2015,02,28,14,31,9.60
2015,02,28,14,32,9.70
2015,02,28,14,33,9.60
2015,02,28,14,34,9.60
2015,02,28,14,35,9.60
2015,02,28,14,36,9.60
2015,02,28,14,37,9.60
2015,02,28,14,38,9.60
2015,02,28,14,39,9.60
2015,02,28,14,40,9.60
2015,02,28,14,41,9.70
2015,02,28,14,42,9.80
2015,02,28,14,43,9.80
2015,02,28,14,44,9.80
2015,02,28,14,45,9.80
2015,02,28,14,46,9.80
2015,02,28,14,47,9.80
2015,02,28,14,48,9.80
2015,02,28,14,49,9.70
2015,02,28,14,50,9.70
2015,02,28,14,51,9.70
2015,02,28,14,52,9.60
2015,02,28,14,53,9.60
2015,02,28,14,54,9.60
2015,02,28,14,55,9.60
2015,02,28,14,56,9.70
2015,02,28,14,57,9.80
2015,02,28,14,58,9.80
2015,02,28,14,59,9.90
2015,02,28,15,00,10.10
2015,02,28,15,01,10.10
2015,02,28,15,02,10.10
2015,02,28,15,03,10.10
2015,02,28,15,04,10.10
2015,02,28,15,05,10.00
2015,02,28,15,06,10.10
2015,02,28,15,07,10.10
2015,02,28,15,08,10.20
2015,02,28,15,09,10.20
2015,02,28,15,10,10.20
2015,02,28,15,11,10.20
2015,02,28,15,12,10.20
2015,02,28,15,13,10.20
2015,02,28,15,14,10.20
2015,02,28,15,15,10.20
2015,02,28,15,16,10.20
2015,02,28,15,17,10.20
2015,02,28,15,18,10.30
2015,02,28,15,19,10.30
2015,02,28,15,20,10.30
2015,02,28,15,21,10.30
2015,02,28,15,22,10.30
2015,02,28,15,23,10.30
2015,02,28,15,24,10.30
2015,02,28,15,25,10.30
2015,02,28,15,26,10.20
2015,02,28,15,27,10.20
2015,02,28,15,28,10.20
2015,02,28,15,29,10.20
2015,02,28,15,30,10.20
2015,02,28,15,31,10.20
2015,02,28,15,32,10.20
2015,02,28,15,33,10.30
2015,02,28,15,34,10.30
2015,02,28,15,35,10.30
2015,02,28,15,36,10.40
2015,02,28,15,37,10.40
2015,02,28,15,38,10.40
2015,02,28,15,39,10.40
2015,02,28,15,40,10.40
2015,02,28,15,41,10.50
2015,02,28,15,42,10.50
2015,02,28,15,43,10.50
2015,02,28,15,44,10.40
2015,02,28,15,45,10.40
2015,02,28,15,46,10.30
2015,02,28,15,47,10.30
2015,02,28,15,48,10.30
2015,02,28,15,49,10.30
2015,02,28,15,50,10.20
2015,02,28,15,51,10.20
2015,02,28,15,52,10.10
2015,02,28,15,53,10.10
2015,02,28,15,54,10.20
2015,02,28,15,55,10.20
2015,02,28,15,56,10.20
2015,02,28,15,57,10.20
2015,02,28,15,58,10.30
2015,02,28,15,59,10.30
2015,02,28,16,00,10.30
2015,02,28,16,01,10.30
2015,02,28,16,02,10.30
2015,02,28,16,03,10.30
2015,02,28,16,04,10.40
2015,02,28,16,05,10.30
2015,02,28,16,06,10.30
2015,02,28,16,07,10.30
2015,02,28,16,08,10.30
2015,02,28,16,09,10.40
2015,02,28,16,10,10.40
2015,02,28,16,11,10.50
2015,02,28,16,12,10.50
2015,02,28,16,13,10.60
2015,02,28,16,14,10.60
2015,02,28,16,15,10.50
2015,02,28,16,16,10.50
2015,02,28,16,17,10.40
2015,02,28,16,18,10.40
2015,02,28,16,19,10.40
2015,02,28,16,20,10.40
2015,02,28,16,21,10.40
2015,02,28,16,22,10.50
2015,02,28,16,23,10.50
2015,02,28,16,24,10.50
2015,02,28,16,25,10.50
2015,02,28,16,26,10.50
2015,02,28,16,27,10.50
2015,02,28,16,28,10.50
2015,02,28,16,29,10.60
2015,02,28,16,30,10.60
2015,02,28,16,31,10.60
2015,02,28,16,32,10.60
2015,02,28,16,33,10.60
2015,02,28,16,34,10.60
2015,02,28,16,35,10.60
2015,02,28,16,36,10.60
2015,02,28,16,37,10.60
2015,02,28,16,38,10.60
2015,02,28,16,39,10.60
2015,02,28,16,40,10.60
2015,02,28,16,41,10.60
2015,02,28,16,42,10.60
2015,02,28,16,43,10.60
2015,02,28,16,44,10.60
2015,02,28,16,45,10.60
2015,02,28,16,46,10.60
2015,02,28,16,47,10.60
2015,02,28,16,48,10.50
2015,02,28,16,49,10.50
2015,02,28,16,50,10.40
2015,02,28,16,51,10.40
2015,02,28,16,52,10.40
2015,02,28,16,53,10.40
2015,02,28,16,54,10.30
2015,02,28,16,55,10.30
2015,02,28,16,56,10.20
2015,02,28,16,57,10.10
2015,02,28,16,58,10.00
2015,02,28,16,59,9.90
2015,02,28,17,00,9.80
2015,02,28,17,01,9.70
2015,02,28,17,02,9.60
2015,02,28,17,03,9.60
2015,02,28,17,04,9.50
2015,02,28,17,05,9.40
2015,02,28,17,06,9.40
2015,02,28,17,07,9.30
2015,02,28,17,08,9.20
2015,02,28,17,09,9.10
2015,02,28,17,10,9.00
2015,02,28,17,11,8.90
2015,02,28,17,12,8.80
2015,02,28,17,13,8.70
2015,02,28,17,14,8.60
2015,02,28,17,15,8.50
2015,02,28,17,16,8.40
2015,02,28,17,17,8.30
2015,02,28,17,18,8.20
2015,02,28,17,19,8.10
2015,02,28,17,20,8.00
2015,02,28,17,21,7.90
2015,02,28,17,22,7.80
2015,02,28,17,23,7.80
2015,02,28,17,24,7.70
2015,02,28,17,25,7.60
2015,02,28,17,26,7.50
2015,02,28,17,27,7.40
2015,02,28,17,28,7.30
2015,02,28,17,29,7.20
2015,02,28,17,30,7.20
2015,02,28,17,31,7.10
2015,02,28,17,32,7.00
2015,02,28,17,33,6.90
2015,02,28,17,34,6.80
2015,02,28,17,35,6.80
2015,02,28,17,36,6.70
2015,02,28,17,37,6.70
2015,02,28,17,38,6.60
2015,02,28,17,39,6.50
2015,02,28,17,40,6.50
2015,02,28,17,41,6.40
2015,02,28,17,42,6.30
2015,02,28,17,43,6.30
2015,02,28,17,44,6.20
2015,02,28,17,45,6.20
2015,02,28,17,46,6.10
2015,02,28,17,47,6.10
2015,02,28,17,48,6.10
2015,02,28,17,49,6.10
2015,02,28,17,50,6.00
2015,02,28,17,51,6.00
2015,02,28,17,52,6.00
2015,02,28,17,53,6.00
2015,02,28,17,54,5.90
2015,02,28,17,55,5.90
2015,02,28,17,56,5.90
2015,02,28,17,57,5.90
2015,02,28,17,58,5.80
2015,02,28,17,59,5.80
2015,02,28,18,00,5.80